• Join FlightAware (Why Join?)
  • Login
  • US Flag GB Flag 
23:29 EDT


 

Airport Tracker/Info


-or-


 

Live Flight TrackerFlight Track Log ✈ SWA127 ✈ 15-Apr-2013 ✈ KMCI - KHOU

Flight Track Log - Related Links

Times and Time Zones

All times are in EDT time to prevent confusion due to time zone crossing. See the SWA127 flight status page for this flight to view local times or setup timezone preferences in your user account.

Time Position Orientation Groundspeed Altitude Reporting Facility
EDT Latitude Longitude Course Direction KTS MPH feet Rate Location/Type
10:57 39.3167 -94.7167 349° North 155 178 1,900  Level Kansas City TRACON
10:58 39.3833 -94.7333 349° North 209 241 4,700 2,280 Climbing Kansas City TRACON
10:59 39.3989 -94.7592 308° West 214 246 6,300 3,000 Climbing Kansas City Center
11:00 39.3583 -94.8167 228° Southwest 237 273 9,800 2,700 Climbing Kansas City Center
11:01 39.2811 -94.8381 192° South 305 351 12,000 2,820 Climbing Kansas City Center
11:02 39.1975 -94.8603 192° South 317 365 15,700 3,540 Climbing Kansas City Center
11:03 39.0944 -94.8872 191° South 337 388 19,300 3,000 Climbing Kansas City Center
11:04 39.0000 -94.9125 192° South 356 410 22,000 2,700 Climbing Kansas City Center
11:05 38.8853 -94.9417 191° South 372 428 24,900 2,820 Climbing Kansas City Center
11:06 38.7853 -94.9681 192° South 381 438 27,900 2,820 Climbing Kansas City Center
11:07 38.6925 -94.9925 192° South 355 409 30,800 2,040 Climbing Kansas City Center
11:08 38.5786 -95.0225 192° South 375 432 32,100 1,380 Climbing Kansas City Center
11:09 38.4769 -95.0492 192° South 386 444 33,700 1,500 Climbing Kansas City Center
11:10 38.3564 -95.0800 191° South 399 459 35,200 1,380 Climbing Kansas City Center
11:11 38.2511 -95.1064 191° South 401 461 36,600 1,320 Climbing Kansas City Center
11:12 38.1306 -95.1403 192° South 398 458 38,000 660 Climbing Kansas City Center
11:13 38.0283 -95.1769 196° South 396 456 38,000  Level Kansas City Center
11:14 37.9097 -95.2172 195° South 389 448 38,000  Level Kansas City Center
11:15 37.8042 -95.2539 195° South 390 449 38,000  Level Kansas City Center
11:16 37.6989 -95.2886 195° South 391 450 38,000  Level Kansas City Center
11:17 37.5922 -95.3258 195° South 394 453 38,000  Level Kansas City Center
11:18 37.4861 -95.3603 194° South 394 453 38,000  Level Kansas City Center
11:19 37.3792 -95.3969 195° South 396 456 38,000  Level Kansas City Center
11:20 37.2522 -95.4394 195° South 394 453 38,000  Level Kansas City Center
11:21 37.1467 -95.4750 195° South 392 451 38,000  Level Kansas City Center
11:22 37.0394 -95.5106 195° South 395 455 38,000  Level Kansas City Center
11:23 36.9325 -95.5464 195° South 397 457 38,000  Level Kansas City Center
11:24 36.8267 -95.5811 195° South 396 456 38,000  Level Kansas City Center
11:25 36.7197 -95.6164 195° South 396 456 38,000  Level Kansas City Center
11:27 36.5936 -95.6575 195° South 396 456 38,000  Level Kansas City Center
11:28 36.4875 -95.6908 194° South 395 455 38,000  Level Kansas City Center
11:29 36.3831 -95.7275 196° South 393 452 38,000  Level Kansas City Center
11:30 36.2800 -95.7611 195° South 391 450 38,000  Level Kansas City Center
11:31 36.1753 -95.7950 195° South 391 450 38,000  Level Kansas City Center
11:32 36.0489 -95.8397 196° South 395 455 38,000  Level Kansas City Center
11:33 35.9422 -95.8778 196° South 397 457 38,000  Level Kansas City Center
11:34 35.8356 -95.9131 195° South 397 457 38,000  Level Kansas City Center
11:35 35.7283 -95.9506 196° South 398 458 38,000  Level Kansas City Center
11:36 35.6214 -95.9864 195° South 397 457 38,000  Level Kansas City Center
11:37 35.5300 -96.0208 197° South 399 459 38,000  Level Fort Worth Center
11:38 35.4219 -96.0583 196° South 399 459 38,000  Level Fort Worth Center
11:39 35.3139 -96.0931 195° South 399 459 38,000  Level Fort Worth Center
11:40 35.2058 -96.1306 196° South 399 459 38,000  Level Fort Worth Center
11:41 35.0997 -96.1700 197° South 399 459 38,000  Level Fort Worth Center
11:42 34.9917 -96.2047 195° South 399 459 38,000  Level Fort Worth Center
11:43 34.8836 -96.2417 196° South 399 459 38,000  Level Fort Worth Center
11:44 34.7753 -96.2783 196° South 399 459 38,000  Level Fort Worth Center
11:45 34.6653 -96.3178 196° South 399 459 38,000  Level Fort Worth Center
11:46 34.5569 -96.3544 196° South 404 465 38,000  Level Fort Worth Center
11:47 34.4447 -96.3911 195° South 409 471 38,000  Level Fort Worth Center
11:48 34.3386 -96.4275 196° South 409 471 38,000  Level Fort Worth Center
11:49 34.2303 -96.4639 196° South 409 471 38,000  Level Fort Worth Center
11:50 34.1200 -96.5028 196° South 409 471 38,000  Level Fort Worth Center
11:51 34.0181 -96.5339 194° South 392 451 38,000  Level Fort Worth Center
11:52 33.9117 -96.5700 196° South 397 457 38,000  Level Fort Worth Center
11:53 33.8036 -96.6086 197° South 397 457 38,000  Level Fort Worth Center
11:54 33.6953 -96.6419 194° South 397 457 38,000  Level Fort Worth Center
11:55 33.5869 -96.6778 195° South 397 457 38,000  Level Fort Worth Center
11:56 33.4911 -96.7061 194° South 397 457 38,000  Level Fort Worth Center
11:57 33.3847 -96.7417 196° South 390 449 38,000  Level Fort Worth Center
11:58 33.2786 -96.7772 196° South 397 457 38,000  Level Fort Worth Center
11:59 33.1742 -96.8103 195° South 397 457 38,000  Level Fort Worth Center
12:00 33.0681 -96.8458 196° South 397 457 38,000  Level Fort Worth Center
12:01 32.9492 -96.8861 196° South 397 457 38,000  Level Fort Worth Center
12:02 32.8386 -96.9017 187° South 397 457 38,000  Level Fort Worth Center
12:03 32.7239 -96.8947 177° South 403 464 38,000  Level Fort Worth Center
12:04 32.6069 -96.8881 177° South 420 483 38,000  Level Fort Worth Center
12:05 32.4878 -96.8814 177° South 420 483 38,000  Level Fort Worth Center
12:06 32.3731 -96.8772 178° South 420 483 38,000  Level Fort Worth Center
12:07 32.2706 -96.8703 177° South 420 483 38,000  Level Fort Worth Center
12:08 32.1536 -96.8614 176° South 420 483 38,000  Level Fort Worth Center
12:09 32.0347 -96.8569 178° South 420 483 38,000  Level Fort Worth Center
12:10 31.9239 -96.8528 178° South 414 476 38,000  Level Fort Worth Center
12:11 31.8069 -96.8461 177° South 409 471 38,000  Level Fort Worth Center
12:12 31.6775 -96.8347 176° South 415 478 38,000  Level Fort Worth Center
12:13 31.5681 -96.8161 172° South 422 486 38,000  Level Houston Center
12:14 31.4289 -96.7931 172° South 427 491 38,000 -1,080 Level Houston Center
12:15 31.3119 -96.7736 172° South 421 484 35,800 -2,400 Descending Houston Center
12:16 31.1928 -96.7542 172° South 424 488 33,100 -2,460 Descending Houston Center
12:17 31.0764 -96.7367 173° South 419 482 30,700 -2,280 Descending Houston Center
12:18 30.9611 -96.7178 172° South 413 475 28,500 -1,860 Descending Houston Center
12:19 30.8467 -96.7003 173° South 410 472 26,900 -1,860 Descending Houston Center
12:20 30.7392 -96.6533 159° South 416 479 24,700 -2,160 Descending Houston Center
12:21 30.6456 -96.5728 143° Southeast 417 480 22,500 -2,400 Descending Houston Center
12:22 30.5403 -96.4839 144° Southeast 398 458 19,800 -2,460 Descending Houston Center
12:23 30.4697 -96.4278 146° Southeast 387 445 17,900 -2,220 Descending Houston Center
12:24 30.3817 -96.3528 144° Southeast 377 434 15,700 -2,340 Descending Houston Center
12:25 30.3072 -96.2911 144° Southeast 361 415 13,400 -2,280 Descending Houston Center
12:25 30.2844 -96.2719 144° Southeast 362 417 12,900 -2,100 Descending Houston Center
12:26 30.2261 -96.2228 144° Southeast 344 396 11,300 -1,860 Descending Houston Center
12:26 30.2064 -96.2067 145° Southeast 347 399 11,000 -360 Descending Houston Center
12:27 30.1564 -96.1703 148° Southeast 335 386 11,000 -120 Level Houston Center
12:27 30.1178 -96.1358 142° Southeast 347 399 10,900  Descending Houston Center
12:28 30.0728 -96.0975 144° Southeast 358 412 11,000  Climbing Houston Center
12:28 30.0378 -96.0669 143° Southeast 356 410 10,900 -720 Descending Houston Center
12:29 29.9911 -96.0272 144° Southeast 358 412 10,300 -900 Descending Houston Center
12:29 29.9656 -96.0064 145° Southeast 359 413 10,000 -360 Descending Houston Center
12:30 29.9119 -95.9617 144° Southeast 306 352 9,900  Descending Houston Center
12:30 29.8814 -95.9342 142° Southeast 310 357 10,000 60 Climbing Houston Center
12:31 29.8439 -95.9019 143° Southeast 301 346 10,000 -300 Level Houston Center
12:31 29.8139 -95.8797 147° Southeast 299 344 9,700 -900 Descending Houston Center
12:32 29.7806 -95.8517 144° Southeast 302 348 9,200 -1,020 Descending Houston Center
12:32 29.7461 -95.8222 143° Southeast 302 348 8,700 -1,380 Descending Houston Center
12:33 29.7081 -95.7903 144° Southeast 299 344 7,800 -1,380 Descending Houston Center
12:33 29.6806 -95.7697 147° Southeast 292 336 7,300 -1,320 Descending Houston Center
12:34 29.6444 -95.7375 142° Southeast 282 325 6,500 -1,260 Descending Houston Center
12:34 29.6181 -95.7167 146° Southeast 283 326 6,000 -540 Descending Houston Center
12:35 29.5911 -95.6811 131° Southeast 266 306 6,000  Level Houston Center
12:35 29.6014 -95.6478 70° East 278 320 6,000 -240 Level Houston Center
12:36 29.6289 -95.6094 50° Northeast 275 316 5,800 -1,560 Descending Houston Center
12:36 29.6369 -95.5564 80° East 277 319 4,400 -2,220 Descending Houston Center
12:37 29.6408 -95.5311 80° East 273 314 3,800 -1,860 Descending Houston Center
12:38 29.6561 -95.4739 73° East 270 311 2,500 -1,920 Descending Houston Center
12:38 29.6658 -95.4369 73° East 264 304 1,700 -900 Descending Houston Center
12:39 29.6764 -95.3947 74° East 265 305 1,600 -240 Descending Houston Center
12:40 29.6889 -95.3372 76° East 213 245 1,300 -540 Descending Houston Center
12:40 29.6756 -95.3156 125° Southeast 132 152 800 -780 Descending Houston Center
12:41 29.6661 -95.3044 134° Southeast 158 182 500 -540 Descending Houston Center